Location: Campestrin
(46.4667°N, 11.7167°E)
Time: 05:04:25
(UTC+00:00)

SL-4 R/B - Pass Details

Date: 18 April 2021
Orbit: 427 x 663 km, 51.6° (Epoch: 15 May)

Event Time Altitude Azimuth Distance (km) Brightness Sun altitude
Exits shadow 23:41:46 24° 56° (ENE) 1,381 4.3 -32.0°
Drops below altitude 10° 23:43:50 10° 69° (ENE) 2,086 5.3 -31.9°
Sets 23:46:17 0° 76° (ENE) 2,997 6.1 -31.9°
